Location: Starlight Observatory
(38.4029°N, 85.8936°W)
Time: 10:16:22
(UTC-04:00)

Iridium 84 - Visible Passes

Search period start: 31 August 2016 00:00
Search period end: 10 September 2016 00:00
Orbit: 776 x 779 km, 86.4° (Epoch: 30 August)

Date Brightness Start Highest point End Pass type
(mag) Time Alt. Az. Time Alt. Az. Time Alt. Az.
31 Aug 6.6 21:09:40 10° NNE 21:13:54 24° E 21:16:21 17° ESE visible
31 Aug 6.9 22:49:57 10° NNW 22:54:38 35° W 22:56:52 24° SW visible
01 Sep 7.3 20:37:40 10° NE 20:40:03 13° ENE 20:42:24 10° ESE visible
01 Sep 5.8 22:16:04 10° N 22:21:15 66° W 22:23:48 30° SSW visible
02 Sep 5.4 21:42:32 10° N 21:47:44 66° E 21:50:46 25° SSE visible
02 Sep 8.3 23:25:33 10° NW 23:27:47 13° WNW 23:30:01 10° WSW visible
03 Sep 6.1 21:09:20 10° NNE 21:14:06 35° E 21:17:48 15° SE visible
03 Sep 7.6 22:50:28 10° NNW 22:54:35 24° W 22:58:18 12° SW visible
04 Sep 6.9 20:36:40 10° NNE 20:40:21 19° ENE 20:44:00 10° ESE visible
04 Sep 6.5 22:16:19 10° NNW 22:21:17 45° W 22:25:24 14° SSW visible
05 Sep 5.5 21:42:36 10° N 21:47:50 85° W 21:52:35 13° S visible
06 Sep 5.7 21:09:12 10° N 21:14:18 51° E 21:19:21 10° SSE visible
06 Sep 8.1 22:51:18 10° NW 22:54:30 17° W 22:57:42 10° WSW visible
07 Sep 6.4 20:36:10 10° NNE 20:40:36 27° E 20:45:01 10° SE visible
07 Sep 7.3 22:16:44 10° NNW 22:21:16 31° W 22:25:47 10° SW visible
08 Sep 6.1 21:42:46 10° N 21:47:54 58° W 21:52:59 10° SSW visible
09 Sep 5.4 21:09:11 10° N 21:14:25 76° E 21:19:37 10° S visible
09 Sep 8.5 22:52:58 10° WNW 22:54:22 11° WNW 22:55:46 10° W visible
